Location: Dal�� Lhota
(48.7500°N, 14.0167°E)
Time: 23:19:52
(UTC+00:00)

Exosat Rocket - Pass Details

Date: 24 September 2020
Orbit: 761 x 2514 km, 72.3° (Epoch: 25 October)

Event Time Altitude Azimuth Distance (km) Brightness Sun altitude
Rises 17:51:19 0° 181° (S) 3,555 6.8 -9.8°
Reaches altitude 10° 17:54:05 10° 173° (S) 2,473 6.0 -10.2°
Maximum altitude 17:58:59 37° 107° (ESE) 1,189 4.0 -11.0°
Drops below altitude 10° 18:03:33 10° 40° (NE) 2,312 5.7 -11.7°
Sets 18:06:04 0° 32° (NNE) 3,293 6.6 -12.1°
